Home > Weather > Bahía Blanca > Past weeks

Flag for Argentina Past Weather in Bahía Blanca, Buenos Aires, Argentina — Yesterday and Last 2 Weeks

Now
46 °F

Passing clouds.


Feels Like: 43 °F
Forecast: N/A
Wind: 7 mph from Southwest

Location: Mar Del Plata Aerodrome

Current Time: Jul 27, 2016 at 8:10:39 PM

Latest Report: Jul 27, 2016 at 7:00 PM


Visibility: N/A

Pressure: 30.30 "Hg

Humidity: 71%

Dew Point: 37 °F

Location of Bahía BlancaLocation

Past Weather in Bahía Blanca — Graph

°F

Bahía Blanca Temperature Yesterday

Maximum temperature yesterday: 50 °F (at 12:00 AM)
Minimum temperature yesterday: 46 °F (at 10:00 PM)
Average temperature yesterday: 49 °F

High & Low Weather Summary for the Past Weeks

 TemperatureHumidityPressure
High57 °F (Jul 22, 4:00 PM)100% (Jul 15, 7:00 PM)30.45 "Hg (Jul 15, 7:00 PM)
Low28 °F (Jul 20, 4:00 AM)54% (Jul 19, 1:00 PM)29.86 "Hg (Jul 12, 7:00 PM)
Average45 °F81%30.16 "Hg
* Reported Jul 12 7:00 PM — Jul 27 7:00 PM, Bahía Blanca, Weather by CustomWeather, © 2016

Note: Actual official high and low records may vary slightly from our data, if they occured in-between our weather recording intervals... More about our weather records

Advertising

Bahía Blanca Weather History for the Previous 24 Hours

Scroll right to see more
 ConditionsComfort  
Time TempWeatherWind HumidityBarometerVisibility
7:00 PM
Wed, Jul 27
46 °FPassing clouds.7 mph71%30.30 "HgN/A
6:00 PM46 °FPartly cloudy.8 mph66%30.27 "HgN/A
5:00 PM48 °FPassing clouds.6 mph66%30.27 "HgN/A
4:00 PM50 °FScattered clouds.7 mph62%30.24 "HgN/A
3:00 PM52 °FScattered clouds.8 mph62%30.24 "HgN/A
2:00 PM50 °FScattered clouds.7 mph62%30.24 "HgN/A
1:00 PM50 °FScattered clouds.8 mph54%30.24 "HgN/A
12:00 PM50 °FPassing clouds.9 mph54%30.24 "HgN/A
11:00 AM48 °FPassing clouds.10 mph62%30.24 "HgN/A
10:00 AM45 °FScattered clouds.3 mph76%30.21 "HgN/A
9:00 AM39 °FPassing clouds.3 mph87%30.21 "HgN/A
8:00 AM41 °FScattered clouds.No wind81%30.18 "HgN/A
7:00 AM43 °FScattered clouds.5 mph76%30.18 "HgN/A
6:00 AM45 °FPassing clouds.7 mph71%30.15 "HgN/A
5:00 AM45 °FPassing clouds.7 mph71%30.15 "HgN/A
4:00 AM45 °FPassing clouds.16 mph71%30.15 "HgN/A
3:00 AM45 °FPassing clouds.9 mph71%30.12 "HgN/A
2:00 AM45 °FPassing clouds.9 mph76%30.12 "HgN/A
1:00 AM45 °FPassing clouds.12 mph76%30.12 "HgN/A
12:00 AM46 °FClear.12 mph71%30.09 "Hg10 mi
11:00 PM
Tue, Jul 26
46 °FClear.12 mph71%30.09 "Hg10 mi
10:00 PM46 °FClear.16 mph76%30.09 "Hg10 mi
9:00 PM48 °FPassing clouds.14 mph71%30.07 "HgN/A
8:00 PM48 °FPassing clouds.18 mph71%30.07 "HgN/A
Weather by CustomWeather, © 2016

See weather overviewHow to use our weather pages